Location: Unspecified
(0.0000°N, 0.0000°E)
Time: 02:24:23
(UTC+02:00)

ISS - All Passes

Search period start: 02 July 2016 00:00
Search period end: 12 July 2016 00:00
Orbit: 402 x 404 km, 51.6° (Epoch: 02 July)

Date Brightness Start Highest point End Pass type
(mag) Time Alt. Az. Time Alt. Az. Time Alt. Az.
02 Jul - 06:18:43 10° SW 06:21:55 56° NW 06:25:06 10° NNE visible
02 Jul - 17:52:16 10° NNW 17:55:31 79° NE 17:58:47 10° SE daylight
03 Jul - 05:26:06 10° SSW 05:29:13 43° SE 05:32:19 10° NE visible
03 Jul - 17:00:02 10° N 17:02:48 25° NE 17:05:34 10° ESE daylight
04 Jul - 04:34:23 10° SSE 04:36:28 16° SE 04:38:33 10° E night (unlit)
04 Jul - 06:10:47 10° W 06:12:43 15° NW 06:14:38 10° NNW visible
04 Jul - 17:43:36 10° WNW 17:46:17 24° SW 17:48:59 10° S daylight
05 Jul - 05:16:53 10° SW 05:19:58 39° NW 05:23:02 10° NNE visible
05 Jul - 16:50:18 10° NW 16:53:32 73° SW 16:56:48 10° SSE daylight
06 Jul - 04:24:00 10° SSW 04:27:13 61° SE 04:30:26 10° NE night (unlit)
06 Jul - 15:57:48 10° NNW 16:00:47 34° NE 16:03:47 10° ESE daylight
07 Jul - 03:31:55 10° S 03:34:27 21° SE 03:36:59 10° ENE night (unlit)
07 Jul - 05:09:38 10° WNW 05:10:42 11° NW 05:11:44 10° NW night (unlit)
07 Jul - 15:06:24 10° NNE 15:08:00 13° NE 15:09:37 10° E daylight
07 Jul - 16:41:55 10° W 16:44:15 18° SW 16:46:34 10° S daylight
08 Jul - 04:15:01 10° WSW 04:17:54 29° NW 04:20:46 10° N night (unlit)
08 Jul - 15:48:17 10° NW 15:51:27 51° SW 15:54:38 10° SSE daylight
09 Jul - 03:21:51 10° SW 03:25:07 87° SE 03:28:22 10° NE night (unlit)
09 Jul - 14:55:32 10° NNW 14:58:40 47° NE 15:01:49 10° SE daylight
10 Jul - 02:29:29 10° S 02:32:19 27° SE 02:35:08 10° ENE night (unlit)
10 Jul - 14:03:39 10° N 14:05:51 17° NE 14:08:04 10° E daylight
10 Jul - 15:40:19 10° W 15:42:05 14° SW 15:43:52 10° SSW daylight
11 Jul - 01:38:41 10° SE 01:39:29 11° SE 01:40:16 10° ESE night (unlit)
11 Jul - 03:13:07 10° WSW 03:15:43 22° NW 03:18:17 10° N night (unlit)
11 Jul - 14:46:13 10° WNW 14:49:15 36° SW 14:52:18 10° SSE daylight
